| time (UTC) | temp C | wind direction | speed KPH | gust KPH | rain 1hr cm | rain 24hr cm | rain mn cm | humidity % | barometer mb |
| 20260905211537 | 18 | 111 | 0.0 | 0.0 | 0.00 | 0.38 | 0.38 | 83 | 1027.1 |
| 20260905210035 | 18 | 111 | 0.0 | 1.6 | 0.00 | 0.38 | 0.38 | 81 | 1027.0 |
| 20260905204536 | 19 | 74 | 1.6 | 6.4 | 0.00 | 0.38 | 0.38 | 81 | 1027.0 |
| 20260905203032 | 19 | 78 | 0.0 | 3.2 | 0.00 | 0.38 | 0.38 | 79 | 1026.9 |
| 20260905201532 | 20 | 96 | 0.0 | 1.6 | 0.00 | 0.38 | 0.38 | 79 | 1026.8 |
| 20260905200032 | 20 | 94 | 0.0 | 1.6 | 0.00 | 0.38 | 0.38 | 80 | 1026.7 |
| 20260905194529 | 20 | 76 | 0.0 | 1.6 | 0.00 | 0.38 | 0.38 | 80 | 1026.5 |
| 20260905193032 | 20 | 75 | 0.0 | 3.2 | 0.00 | 0.38 | 0.38 | 79 | 1026.5 |
| 20260905191529 | 20 | 77 | 0.0 | 4.8 | 0.00 | 0.38 | 0.38 | 78 | 1026.5 |
| 20260905190036 | 20 | 257 | 0.0 | 0.0 | 0.00 | 0.38 | 0.38 | 76 | 1026.3 |
| 20260905184526 | 21 | 257 | 0.0 | 1.6 | 0.00 | 0.38 | 0.38 | 73 | 1026.1 |
| 20260905183025 | 21 | 257 | 0.0 | 0.0 | 0.00 | 0.38 | 0.38 | 72 | 1025.9 |
| 20260905181525 | 22 | 257 | 0.0 | 0.0 | 0.00 | 0.38 | 0.38 | 71 | 1025.8 |
| 20260905180030 | 22 | 259 | 0.0 | 3.2 | 0.00 | 0.38 | 0.38 | 69 | 1025.6 |
| 20260905174524 | 23 | 248 | 0.0 | 1.6 | 0.00 | 0.38 | 0.38 | 67 | 1025.5 |
| 20260905173022 | 23 | 253 | 0.0 | 3.2 | 0.00 | 0.38 | 0.38 | 65 | 1025.4 |
| 20260905171528 | 24 | 245 | 1.6 | 3.2 | 0.00 | 0.38 | 0.38 | 63 | 1025.4 |
| 20260905170022 | 24 | 242 | 0.0 | 1.6 | 0.00 | 0.38 | 0.38 | 61 | 1025.4 |
| 20260905164522 | 25 | 248 | 0.0 | 6.4 | 0.00 | 0.38 | 0.38 | 59 | 1025.4 |
| 20260905163021 | 25 | 232 | 0.0 | 1.6 | 0.00 | 0.38 | 0.38 | 65 | 1025.2 |
| 20260905161525 | 25 | 261 | 1.6 | 6.4 | 0.00 | 0.38 | 0.38 | 63 | 1025.2 |
| 20260905160031 | 25 | 248 | 1.6 | 8.0 | 0.00 | 0.38 | 0.38 | 62 | 1025.3 |
| 20260905154519 | 25 | 241 | 0.0 | 6.4 | 0.00 | 0.38 | 0.38 | 63 | 1025.2 |
| 20260905153022 | 25 | 252 | 1.6 | 6.4 | 0.00 | 0.38 | 0.38 | 63 | 1025.3 |
| 20260905151517 | 25 | 258 | 1.6 | 3.2 | 0.00 | 0.38 | 0.38 | 67 | 1025.4 |
| 20260905150017 | 23 | 236 | 1.6 | 6.4 | 0.00 | 0.38 | 0.38 | 72 | 1025.6 |
| 20260905144524 | 23 | 244 | 3.2 | 12.9 | 0.00 | 0.38 | 0.38 | 71 | 1025.5 |
| 20260905143015 | 23 | 243 | 1.6 | 11.3 | 0.00 | 0.38 | 0.38 | 73 | 1025.5 |
| 20260905141516 | 23 | 257 | 1.6 | 6.4 | 0.00 | 0.38 | 0.38 | 76 | 1025.7 |
| 20260905140020 | 22 | 238 | 4.8 | 9.7 | 0.00 | 0.38 | 0.38 | 78 | 1025.8 |
| 20260905134514 | 21 | 231 | 0.0 | 4.8 | 0.00 | 0.38 | 0.38 | 83 | 1025.8 |
| 20260905133020 | 21 | 252 | 1.6 | 9.7 | 0.03 | 0.38 | 0.38 | 84 | 1026.0 |
| 20260905131511 | 20 | 242 | 1.6 | 9.7 | 0.10 | 0.38 | 0.38 | 85 | 1025.9 |
| 20260905130011 | 19 | 233 | 1.6 | 11.3 | 0.15 | 0.38 | 0.38 | 90 | 1025.8 |
| 20260905124511 | 18 | 239 | 4.8 | 11.3 | 0.15 | 0.38 | 0.38 | 92 | 1026.2 |
| 20260905123012 | 18 | 245 | 1.6 | 6.4 | 0.15 | 0.36 | 0.36 | 92 | 1026.3 |
| 20260905121508 | 18 | 253 | 1.6 | 9.7 | 0.08 | 0.28 | 0.28 | 92 | 1026.2 |
| 20260905120014 | 19 | 230 | 3.2 | 4.8 | 0.08 | 0.23 | 0.23 | 91 | 1026.1 |
| 20260905114503 | 19 | 241 | 0.0 | 3.2 | 0.13 | 0.23 | 0.23 | 91 | 1026.0 |
| 20260905113001 | 19 | 219 | 0.0 | 0.0 | 0.23 | 0.23 | 0.23 | 91 | 1026.1 |
| 20260905111653 | 20 | 220 | 0.0 | 0.0 | 0.20 | 0.20 | 0.20 | 90 | 1026.2 |
| 20260905110057 | 20 | 220 | 0.0 | 1.6 | 0.15 | 0.15 | 0.15 | 87 | 1026.0 |
| 20260905104556 | 21 | 219 | 0.0 | 3.2 | 0.10 | 0.10 | 0.10 | 85 | 1025.9 |
| 20260905103101 | 22 | 79 | 0.0 | 0.0 | 0.00 | 0.00 | 0.00 | 79 | 1025.4 |
| 20260905101551 | 22 | 243 | 0.0 | 0.0 | 0.00 | 0.00 | 0.00 | 75 | 1025.2 |
| 20260905100055 | 23 | 243 | 0.0 | 1.6 | 0.00 | 0.00 | 0.00 | 75 | 1025.1 |
| 20260905094549 | 22 | 243 | 0.0 | 1.6 | 0.00 | 0.00 | 0.00 | 75 | 1024.9 |
| 20260905093059 | 22 | 243 | 0.0 | 3.2 | 0.00 | 0.00 | 0.00 | 74 | 1025.0 |
| 20260905091548 | 22 | 241 | 0.0 | 4.8 | 0.00 | 0.00 | 0.00 | 77 | 1024.8 |
| 20260905090045 | 21 | 233 | 0.0 | 4.8 | 0.00 | 0.00 | 0.00 | 78 | 1024.8 |
| 20260905084544 | 21 | 249 | 0.0 | 1.6 | 0.00 | 0.00 | 0.00 | 80 | 1024.6 |
| 20260905083043 | 21 | 245 | 0.0 | 1.6 | 0.00 | 0.00 | 0.00 | 80 | 1024.6 |
| 20260905081542 | 21 | 247 | 0.0 | 1.6 | 0.00 | 0.00 | 0.00 | 81 | 1024.3 |
| 20260905080039 | 21 | 247 | 0.0 | 1.6 | 0.00 | 0.00 | 0.00 | 81 | 1024.2 |
| 20260905074539 | 21 | 250 | 0.0 | 1.6 | 0.00 | 0.00 | 0.00 | 81 | 1024.1 |
| 20260905073040 | 20 | 228 | 0.0 | 1.6 | 0.00 | 0.00 | 0.00 | 81 | 1024.1 |
| 20260905071538 | 20 | 248 | 0.0 | 0.0 | 0.00 | 0.00 | 0.00 | 83 | 1023.9 |
| 20260905070047 | 20 | 248 | 0.0 | 0.0 | 0.00 | 0.00 | 0.00 | 81 | 1023.7 |
| 20260905064546 | 20 | 248 | 0.0 | 1.6 | 0.00 | 0.00 | 0.00 | 82 | 1023.5 |
| 20260905063033 | 20 | 248 | 0.0 | 3.2 | 0.00 | 0.00 | 0.00 | 82 | 1023.5 |
| 20260905061532 | 20 | 248 | 0.0 | 1.6 | 0.00 | 0.00 | 0.00 | 83 | 1023.4 |
| 20260905060029 | 20 | 248 | 0.0 | 0.0 | 0.00 | 0.00 | 0.00 | 84 | 1023.2 |
| 20260905054535 | 20 | 240 | 0.0 | 1.6 | 0.00 | 0.00 | 0.00 | 85 | 1022.8 |
| 20260905053025 | 20 | 85 | 0.0 | 0.0 | 0.00 | 0.00 | 0.00 | 82 | 1022.6 |
| 20260905051538 | 20 | 85 | 0.0 | 1.6 | 0.00 | 0.00 | 0.00 | 82 | 1022.6 |
| 20260905050022 | 20 | 236 | 0.0 | 0.0 | 0.00 | 0.00 | 0.00 | 81 | 1022.4 |
| 20260905044521 | 20 | 233 | 0.0 | 0.0 | 0.00 | 0.00 | 0.00 | 83 | 1022.2 |
| 20260905043018 | 20 | 233 | 0.0 | 1.6 | 0.00 | 0.00 | 0.00 | 80 | 1021.6 |
| 20260905041515 | 21 | 246 | 0.0 | 3.2 | 0.00 | 0.00 | 0.00 | 77 | 1021.5 |
| 20260905040021 | 21 | 260 | 0.0 | 3.2 | 0.00 | 0.00 | 0.00 | 73 | 1021.6 |
| 20260905034524 | 21 | 250 | 0.0 | 1.6 | 0.00 | 0.00 | 0.00 | 72 | 1021.6 |
| 20260905033019 | 21 | 250 | 0.0 | 3.2 | 0.00 | 0.00 | 0.00 | 72 | 1021.5 |
| 20260905031510 | 21 | 253 | 0.0 | 1.6 | 0.00 | 0.00 | 0.00 | 71 | 1021.4 |
| 20260905030008 | 21 | 248 | 0.0 | 1.6 | 0.00 | 0.00 | 0.00 | 70 | 1021.3 |
| 20260905024510 | 21 | 245 | 0.0 | 6.4 | 0.00 | 0.00 | 0.00 | 70 | 1021.1 |
| 20260905023006 | 21 | 250 | 1.6 | 6.4 | 0.00 | 0.00 | 0.00 | 69 | 1021.1 |
| 20260905021505 | 21 | 219 | 0.0 | 1.6 | 0.00 | 0.00 | 0.00 | 69 | 1021.0 |
| 20260905020004 | 21 | 151 | 0.0 | 1.6 | 0.00 | 0.00 | 0.00 | 69 | 1021.0 |
| 20260905014503 | 21 | 152 | 0.0 | 1.6 | 0.00 | 0.00 | 0.00 | 70 | 1020.9 |
| 20260905013003 | 21 | 200 | 0.0 | 0.0 | 0.00 | 0.00 | 0.00 | 71 | 1021.1 |
| 20260905011500 | 21 | 200 | 0.0 | 0.0 | 0.00 | 0.00 | 0.00 | 69 | 1020.8 |
| 20260905010059 | 21 | 200 | 0.0 | 1.6 | 0.00 | 0.00 | 0.00 | 68 | 1020.5 |
| 20260905004558 | 21 | 225 | 0.0 | 1.6 | 0.00 | 0.00 | 0.00 | 69 | 1020.7 |
| 20260905003058 | 21 | 224 | 0.0 | 1.6 | 0.00 | 0.00 | 0.00 | 69 | 1020.5 |
| 20260905001559 | 21 | 224 | 0.0 | 1.6 | 0.00 | 0.00 | 0.00 | 69 | 1020.2 |
| 20260905000053 | 22 | 224 | 0.0 | 0.0 | 0.00 | 0.00 | 0.00 | 68 | 1020.3 |
| 20260904234553 | 22 | 224 | 0.0 | 1.6 | 0.00 | 0.00 | 0.00 | 67 | 1019.9 |
| 20260904233051 | 22 | 224 | 0.0 | 1.6 | 0.00 | 0.00 | 0.00 | 66 | 1019.5 |
| 20260904231544 | 23 | 115 | 0.0 | 0.0 | 0.00 | 0.00 | 0.00 | 63 | 1019.5 |
| 20260904230041 | 23 | 115 | 0.0 | 1.6 | 0.00 | 0.00 | 0.00 | 62 | 1019.4 |
| 20260904224537 | 24 | 193 | 0.0 | 1.6 | 0.00 | 0.00 | 0.00 | 60 | 1019.3 |
| 20260904223046 | 25 | 252 | 0.0 | 1.6 | 0.00 | 0.00 | 0.00 | 59 | 1019.1 |
| 20260904221544 | 25 | 265 | 0.0 | 6.4 | 0.00 | 0.00 | 0.00 | 58 | 1019.0 |
| 20260904220029 | 25 | 250 | 0.0 | 3.2 | 0.00 | 0.00 | 0.00 | 57 | 1018.9 |
| 20260904214528 | 26 | 250 | 0.0 | 8.0 | 0.00 | 0.00 | 0.00 | 56 | 1018.8 |
| 20260904213028 | 26 | 253 | 0.0 | 6.4 | 0.00 | 0.00 | 0.00 | 55 | 1018.6 |